Location: Helsinki
(60.1699°N, 24.9384°E)
Time: 22:53:14
(UTC+02:00)

Tiros 1 - Visible Passes

Search period start: 28 October 2020 00:00
Search period end: 07 November 2020 00:00
Orbit: 630 x 663 km, 48.4° (Epoch: 27 October)

Date Brightness Start Highest point End Pass type
(mag) Time Alt. Az. Time Alt. Az. Time Alt. Az.
28 Oct 9.5 04:34:10 11° S 04:35:50 12° SSE 04:37:46 10° SE visible
28 Oct 9.2 06:13:34 10° SW 06:16:47 19° S 06:20:01 10° SE visible
29 Oct 9.3 04:59:14 13° SSW 05:01:15 16° SSE 05:04:06 10° SE visible
29 Oct 9.2 06:39:04 10° SW 06:42:17 19° S 06:45:31 10° SE visible
30 Oct 9.7 03:46:34 12° SE 03:46:34 12° SE 03:47:33 10° SE visible
30 Oct 9.1 05:24:14 13° SSW 05:26:43 19° S 05:29:56 10° SE visible
31 Oct 9.3 04:11:33 16° SSE 04:11:33 16° SSE 04:13:58 10° SE visible
31 Oct 9.0 05:49:13 11° SW 05:52:13 19° S 05:55:28 10° SE visible
01 Nov 9.0 04:36:30 19° S 04:36:38 19° S 04:39:50 10° SE visible
01 Nov 9.1 06:14:44 10° SW 06:17:42 17° SSW 06:20:40 10° SSE visible
02 Nov 9.9 03:23:48 10° SE 03:23:48 10° SE 03:23:51 10° SE visible
02 Nov 8.9 05:01:27 18° SSW 05:02:09 19° S 05:05:24 10° SE visible
02 Nov 9.3 06:40:54 10° SW 06:43:08 13° SSW 06:45:21 10° S visible
03 Nov 9.6 03:48:45 14° SE 03:48:45 14° SE 03:49:45 10° SE visible
03 Nov 8.9 05:26:24 16° SSW 05:27:38 17° SSW 05:30:39 10° SSE visible
04 Nov 9.3 04:13:43 16° SSE 04:13:43 16° SSE 04:15:20 10° SE visible
04 Nov 9.2 05:51:23 12° SW 05:53:04 14° SSW 05:55:24 10° S visible
05 Nov 9.2 04:38:42 16° S 04:38:42 16° S 04:40:38 10° SSE visible
06 Nov 9.2 05:03:44 14° S 05:03:44 14° S 05:05:27 10° SSE visible
